Regional Weather Roundup
Issued by NWS Jackson, KY

Home | Current Version | Previous Version | Text Only | Print | Product List | Glossary Off
Versions: 1 2 3 4 5 6 7 8 9 10 11 12 13 14 15 16 17 18 19 20 21 22 23 24 25 26 27 28 29 30 31 32 33 34 35 36 37 38 39 40 41 42 43 44 45 46 47 48 49 50

281
ASUS43 KJKL 261910
RWRJKL

EAST KENTUCKY HOURLY WEATHER ROUNDUP
NATIONAL WEATHER SERVICE JACKSON KY
300 PM EDT THU MAY 26 2016

NOTE: "FAIR" INDICATES FEW OR NO CLOUDS BELOW 12,000 FEET WITH
NO SIGNIFICANT WEATHER AND/OR OBSTRUCTIONS TO VISIBILITY.

* THESE REPORTS ARE NOT UNDER NWS QUALITY CONTROL AND MAY NOT
  REPORT WEATHER SUCH AS PRECIPITATION AND FOG.

KYZ079-080-083-085-087-088-110-112-115-119-120-262000
...EASTERN KENTUCKY...

CITY           SKY/WX    TMP DP  RH WIND       PRES   REMARKS
JACKSON        PTSUNNY   75  63  66 VRB6      30.13F
LONDON         CLOUDY    73  64  73 S7        30.12F
SOMERSET*      PTSUNNY   75  68  78 SE6       30.10F
MONTICELLO*    PTSUNNY   78  71  79 E7        30.10F
WILLIAMSBURG*  CLOUDY    75  68  78 SE8       30.12F
MIDDLESBORO*   PTSUNNY   74  67  78 S12       30.14F
HARLAN APT*      N/A     70  63  78 E3        30.16F
HAZARD APT*    CLEAR     75  64  69 S8        30.14
BLACK MTN*       N/A     64  61  88 S6          N/A
PIKE CO APT*   PTSUNNY   71  67  90 S6        30.16F
BIG SANDY APT* CLOUDY    74  68  79 S6        30.15F
MOREHEAD APT*  PTCLDY    79  66  65 S12       30.11F
ASHLAND*       PTSUNNY   77  66  69 S10       30.07F
$$

KYZ035-036-041-042-044-050-067-078-099-262000
...CENTRAL KENTUCKY...

CITY           SKY/WX    TMP DP  RH WIND       PRES   REMARKS
MT STERLING*   MOSUNNY  N/A N/A N/A SW8       30.11S
FLEMING/MASON* CLOUDY   N/A N/A N/A S9        30.09F
DANVILLE*      MOSUNNY   79  66  65 SW14G21   30.10F
RICHMOND*      PTSUNNY   77  64  65 S14G21    30.09F
LEXINGTON      CLOUDY    79  67  66 S12       30.07F
FRANKFORT      MOSUNNY   83  68  60 S10       30.04F
LOUISVILLE     LGT RAIN  68  64  87 N6        30.07F
LEBANON*         N/A     81  70  69 SE9       30.06F
GLASGOW*       CLOUDY    82  69  65 S9        30.05F
BOWLING GREEN  CLOUDY    74  67  78 VRB3G18   30.04S THUNDER
$$

KYZ091>093-OHZ055-061-077-WVZ005-015-034-035-042-262000
...SOUTHERN OHIO/WEST VIRGINIA...

CITY           SKY/WX    TMP DP  RH WIND       PRES   REMARKS
COVINGTON      CLOUDY    79  68  69 S8        30.03F
COLUMBUS       CLOUDY    77  65  66 S13       30.03F
DAYTON         CLOUDY    76  65  68 S9        30.03F
WILMINGTON     PTSUNNY   80  67  64 SW13      30.05F
HUNTINGTON     CLOUDY    76  65  68 SE9       30.11F
CHARLESTON     PTSUNNY   77  62  59 SW15      30.13F
PINEVILLE*     PTSUNNY   71  61  69 MISG      30.24F
BECKLEY        LGT RAIN  68  63  84 SW7       30.21S
BLUEFIELD      CLOUDY    70  59  68 W13       30.23F
LOGAN CO APT*  CLOUDY    68  64  88 CALM      30.17F
$$

VAZ002-007-008-TNZ017-027-036-066-071-262000
...SOUTHWEST VIRGINIA/EAST TENNESSEE...

CITY           SKY/WX    TMP DP  RH WIND       PRES   REMARKS
WISE*          CLOUDY    70  55  60 W8        30.24F
JONESVILLE*      N/A     70  66  88 CALM      30.20F
ABINGDON*      PTSUNNY   75  62  64 W8        30.22F
BRISTOL        LGT RAIN  71  63  75 W8        30.20F
SEVIERVILLE*   CLEAR     73  64  73 E5        30.17F
KNOXVILLE      MOSUNNY   80  64  58 E9        30.15F
OAK RIDGE      SUNNY     81  60  48 CALM      30.16F
CROSSVILLE     MOSUNNY   80  61  52 VRB6      30.15F
NASHVILLE      MOSUNNY   88  65  46 S14G20    30.03F HX  90
$$

...KEY TO REMARKS...
VSB - VISIBILITY IN MILES
WCI - WIND CHILL INDEX
HX  - HEAT INDEX

$$




USA.gov is the U.S. government's official web portal to all federal, state and local government web resources and services.